Location: Allie Creek
(37.5926°N, 89.8526°W)
Time: 13:55:19
(UTC+00:00)

Cosmos 2150 Rocket - Pass Details

Date: 26 September 2023
Orbit: 748 x 806 km, 74.0° (Epoch: 11 December)

Event Time Altitude Azimuth Distance (km) Brightness Sun altitude
Rises 11:01:06 0° 204° (SSW) 3,290 7.0 -10.6°
Reaches altitude 10° 11:03:32 10° 207° (SSW) 2,357 6.2 -10.1°
Maximum altitude 11:08:51 66° 290° (WNW) 860 4.1 -9.1°
Drops below altitude 10° 11:14:09 10° 12° (NNE) 2,335 6.7 -8.0°
Sets 11:16:32 0° 15° (NNE) 3,257 7.5 -7.5°
